Location: G�ndlingen
(48.0142°N, 7.6396°E)
Time: 03:04:04
(UTC+00:00)

Cosmos 2074 Rocket - Pass Details

Date: 05 July 2020
Orbit: 967 x 986 km, 82.9° (Epoch: 04 August)

Event Time Altitude Azimuth Distance (km) Brightness Sun altitude
Exits shadow 21:29:13 17° 173° (S) 2,270 5.4 -14.0°
Maximum altitude 21:34:09 68° 94° (E) 1,047 4.0 -14.4°
Drops below altitude 10° 21:40:20 10° 14° (NNE) 2,723 7.1 -14.8°
Sets 21:42:51 0° 12° (NNE) 3,672 7.9 -15.0°
